GFSCGP_700_temp_021.txt.gz
Temp
13 14 15 16 17 18 19 20 20 20 19 18 18 18 17 16 15 15 15 14 13 12 12 12 14 13 14 13 14 13 13 13 12 12 11 11 11 11 10 11 10 11 11 10
14 15 16 16 17 18 19 20 20 20 19 18 18 18 18 16 16 15 15 14 13 13 12 11 12 13 14 14 14 14 14 13 12 12 11 10 8 7 7 9 11 11 11 11
16 16 16 17 17 18 18 19 20 21 20 18 19 18 19 18 16 16 15 15 14 14 13 12 11 14 14 14 14 14 13 13 13 12 12 11 11 11 10 10 12 11 11 11
16 17 16 16 17 18 18 19 20 20 18 18 19 20 19 19 18 17 16 15 15 14 14 13 11 12 14 14 14 14 13 13 13 12 12 12 12 11 10 11 8 12 12 12
16 16 17 16 17 18 18 19 19 20 20 20 20 19 21 19 19 18 17 16 16 15 14 14 13 11 11 11 13 14 13 13 14 13 13 12 12 12 11 11 11 11 11 11
16 16 16 17 17 17 18 19 19 19 20 20 20 19 21 16 20 19 19 17 16 16 15 14 13 12 11 11 13 14 14 14 14 14 13 13 12 12 11 11 11 11 11 11
15 16 16 17 16 17 17 18 19 20 21 21 20 20 17 21 20 19 19 19 18 16 16 15 14 13 12 15 15 15 15 15 14 14 14 13 13 12 12 12 11 11 11 11
16 16 16 16 16 17 17 18 19 19 21 22 21 21 21 20 20 20 19 19 19 17 16 16 16 16 16 16 16 16 15 15 14 14 14 13 13 12 12 12 11 11 11 11
17 16 16 16 16 16 18 18 19 20 20 21 21 21 20 20 20 19 19 19 19 18 17 16 17 17 16 16 16 16 15 15 14 14 14 13 13 13 12 12 12 11 11 11
16 17 17 17 16 16 17 18 18 19 21 21 22 21 21 20 19 19 19 19 19 19 18 17 16 16 17 16 16 16 15 15 15 14 14 13 13 13 13 12 12 12 11 11
15 16 17 17 16 16 16 17 18 19 19 21 21 22 21 20 19 19 19 19 19 19 18 17 16 15 17 16 16 16 15 15 15 15 14 14 14 13 13 13 12 12 11 11
15 16 16 17 17 16 16 17 18 19 19 19 20 22 21 21 20 19 19 20 20 19 19 18 17 16 15 17 17 16 15 15 15 15 15 14 14 13 13 13 12 12 12 11
15 15 16 16 17 16 16 17 18 18 19 19 20 20 20 20 20 19 19 19 19 19 19 19 18 17 15 17 18 16 15 15 15 15 14 14 14 14 13 13 12 12 12 11
15 15 15 17 17 17 16 16 17 18 19 19 19 19 20 20 19 19 19 19 19 19 18 18 18 17 16 17 18 17 16 15 15 15 14 14 14 14 13 13 13 12 12 12
13 14 15 15 16 17 17 16 16 17 18 18 19 19 19 19 19 19 18 18 18 18 18 18 19 18 17 17 18 18 17 16 15 15 15 15 15 15 14 13 13 12 12 11
13 13 14 15 15 16 17 17 17 16 17 17 18 18 19 19 19 19 19 18 18 18 18 18 18 18 18 19 18 18 17 16 16 15 15 15 15 15 14 14 14 14 13 13
12 13 13 14 15 15 16 16 17 17 17 16 16 17 17 18 18 18 18 18 18 18 18 18 18 19 19 19 18 18 17 16 16 16 16 15 15 15 15 15 14 14 14 14
12 12 13 14 14 15 15 16 16 16 16 17 17 17 17 17 17 17 17 17 17 17 17 18 17 18 18 18 18 17 17 16 16 16 16 16 15 15 15 15 14 13 13 13
11 12 12 13 14 14 15 15 15 15 15 16 16 17 17 16 17 17 17 17 17 17 17 17 17 18 18 18 18 17 17 17 16 16 16 16 15 15 14 13 13 13 12 12
10 10 12 13 14 15 16 13 14 14 15 15 15 15 16 16 16 16 16 16 17 17 17 17 17 17 18 18 18 18 17 17 17 16 16 15 14 14 13 13 13 13 13 13
10 10 11 13 13 14 11 12 13 13 14 14 14 14 15 15 16 16 16 16 16 16 17 16 18 18 18 18 18 18 17 17 17 16 15 14 14 13 13 13 12 12 12 12
10 10 11 12 13 14 11 11 12 13 13 13 13 13 14 15 15 15 15 16 16 16 16 17 17 18 18 18 18 17 17 16 16 15 14 14 13 13 12 12 12 12 11 12
11 11 12 12 13 11 11 11 12 12 12 11 11 13 13 13 13 13 14 15 14 15 16 16 17 18 17 18 17 16 15 14 14 14 14 14 14 13 12 12 12 12 12 11
11 11 12 10 7 9 10 11 11 10 10 9 10 10 11 11 10 11 11 10 10 11 13 15 16 17 15 17 16 14 14 14 14 13 13 12 12 12 12 12 11 11 10 9
9 8 11 9 6 6 6 10 10 8 7 7 8 9 8 8 8 8 8 8 8 8 8 10 13 14 13 14 13 13 12 12 12 12 12 12 12 12 11 10 10 9 9 9
3 6 6 7 8 8 8 7 7 5 5 5 6 7 7 8 8 8 7 7 7 9 10 11 11 11 12 11 11 11 12 12 12 12 12 12 11 10 10 9 9 8 8 8

GFSCGP_700_temp_024.txt.gz
Temp
13 14 15 16 16 17 19 20 20 21 19 19 18 17 15 16 16 16 15 14 13 13 12 11 13 12 13 14 14 14 14 13 13 13 13 12 12 11 11 10 11 11 10 10
14 14 15 16 17 17 18 19 20 21 19 19 19 17 17 16 17 16 16 15 14 14 13 12 12 12 13 14 14 14 14 14 13 13 13 12 12 12 12 10 10 10 11 12
15 16 16 17 17 17 18 19 20 21 20 19 20 19 19 18 17 17 17 16 15 14 13 13 12 12 12 14 14 14 14 14 13 13 12 12 12 12 9 10 10 12 12 11
15 16 17 17 17 18 18 19 20 20 20 20 19 21 19 18 18 17 17 17 16 15 14 13 13 12 12 14 14 14 14 14 13 13 13 13 12 12 11 10 12 13 12 12
16 16 17 17 17 18 18 19 20 20 20 20 18 18 19 19 19 18 17 17 17 16 15 14 14 13 12 12 14 15 14 14 14 13 13 13 13 13 12 12 12 12 12 12
16 17 17 18 18 18 18 19 19 20 20 20 19 18 19 19 19 18 19 18 17 17 16 15 14 14 13 13 13 15 15 14 14 14 13 13 13 13 12 12 12 12 11 11
16 17 17 18 18 18 18 19 20 20 21 21 20 19 19 19 19 19 18 17 18 17 17 16 15 14 14 14 14 15 16 15 14 14 14 14 13 13 13 12 12 12 11 11
16 17 17 18 17 18 18 19 20 19 21 21 21 22 21 20 19 18 18 18 19 18 17 16 16 15 15 15 15 16 17 16 15 15 14 14 13 13 12 12 12 12 11 11
17 17 18 17 18 18 18 18 19 20 20 21 22 22 21 20 20 18 17 19 20 19 18 17 16 16 16 16 16 17 17 16 15 15 14 14 13 13 13 12 12 12 12 12
17 18 18 18 18 18 18 18 19 19 19 20 22 22 22 21 20 16 19 19 20 19 19 18 17 17 17 16 17 16 16 16 16 15 14 14 13 13 13 13 12 12 12 12
16 17 18 18 18 18 17 17 18 19 19 21 21 22 22 22 20 19 19 20 19 20 20 18 18 17 18 16 17 16 16 16 15 15 15 14 14 13 13 13 13 12 12 12
16 16 17 18 18 18 18 17 17 18 19 20 21 22 22 22 21 20 20 20 20 19 20 19 18 18 17 18 17 17 16 16 16 15 15 15 14 14 14 14 13 13 13 12
17 16 17 17 18 18 18 18 18 18 18 20 20 21 20 21 20 19 20 19 19 20 20 19 19 18 17 17 18 18 17 16 16 15 15 15 15 14 14 14 13 13 13 13
16 17 16 18 17 18 18 18 18 18 19 19 20 20 20 20 20 19 19 19 20 19 19 19 19 18 17 17 18 18 18 16 16 15 15 15 15 15 14 14 14 13 13 13
16 15 16 16 17 18 18 18 18 17 18 19 19 20 20 20 20 19 19 19 19 19 19 19 19 19 17 17 18 17 17 17 16 15 15 15 15 14 14 14 14 14 13 13
15 14 15 16 17 17 18 18 18 18 17 18 18 19 19 19 20 20 19 19 19 19 19 18 18 18 18 17 17 18 17 17 16 16 16 16 15 15 15 15 15 14 14 14
14 14 14 15 16 17 17 17 18 18 18 18 18 18 18 19 19 19 19 19 19 19 19 18 18 18 18 18 18 17 17 17 17 17 16 16 15 16 16 15 15 14 14 14
13 13 13 14 15 15 16 17 17 18 18 18 17 17 18 18 18 18 18 18 18 18 18 18 18 18 18 18 18 18 17 17 17 17 16 16 16 16 16 15 15 14 14 14
13 13 13 14 15 15 16 16 17 17 17 17 17 17 17 17 17 18 18 17 17 17 17 18 18 18 17 17 18 18 18 18 17 17 17 16 16 16 16 15 14 14 14 13
12 13 13 13 14 15 15 16 16 15 15 16 16 16 16 16 16 16 17 17 17 17 17 17 17 17 18 17 17 18 18 18 18 17 17 16 16 16 15 14 14 13 13 12
11 12 12 13 13 14 15 15 14 14 15 15 15 15 15 15 16 16 16 16 17 17 17 17 17 17 17 17 17 18 18 18 18 17 17 16 16 15 14 14 13 13 12 13
10 10 11 12 13 14 14 13 13 13 13 14 14 14 15 15 15 15 16 16 16 16 17 16 16 17 16 16 17 18 18 18 17 17 16 16 15 14 13 13 13 13 13 12
9 10 11 12 12 11 9 12 11 11 12 13 13 13 14 14 14 14 14 15 14 15 16 15 16 16 16 15 16 16 17 17 17 17 16 14 14 13 13 13 14 13 12 12
8 9 10 11 11 11 10 11 11 11 11 10 11 11 12 12 12 13 13 13 13 14 15 15 15 16 15 15 15 15 15 14 14 15 15 14 13 13 13 12 12 12 12 11
4 7 10 11 11 9 8 8 8 10 10 10 11 11 11 11 10 10 10 12 12 12 14 14 14 14 13 13 13 14 14 13 14 13 13 13 12 12 12 12 12 12 11 10
3 4 6 9 7 8 7 7 7 10 10 9 11 11 9 9 9 9 9 9 10 12 12 12 14 13 11 11 11 11 12 12 12 12 12 12 12 12 11 11 11 10 9 9

GFSCGP_700_temp_030.txt.gz
Temp
12 12 12 13 13 15 15 16 16 18 18 17 18 17 16 15 15 15 15 14 14 15 15 14 14 12 12 13 13 14 14 13 13 13 12 12 12 11 11 11 11 11 11 10
11 11 12 12 13 14 15 16 17 17 17 17 18 18 17 16 16 16 16 15 14 14 14 14 14 13 13 14 14 14 14 13 13 13 12 12 11 11 11 11 12 12 11 11
12 12 12 12 13 13 14 16 17 16 17 17 18 17 15 15 15 15 15 16 15 15 15 14 14 14 14 14 14 14 14 14 13 13 13 12 12 12 12 12 13 12 12 12
12 12 13 13 13 13 14 16 16 16 16 17 17 16 16 16 15 15 16 16 16 15 15 15 15 15 14 14 14 14 14 14 13 13 13 13 12 12 12 12 13 12 12 12
12 13 13 13 13 14 14 15 15 15 16 16 17 17 17 17 16 16 16 16 16 15 15 15 16 15 16 15 14 14 14 14 14 14 13 13 13 13 13 13 13 12 12 12
13 13 13 14 14 14 15 15 15 16 16 14 16 16 17 17 17 16 16 17 16 16 16 16 16 16 15 15 14 13 13 14 14 14 14 13 14 14 14 14 13 13 12 12
13 13 13 14 14 15 15 15 15 13 14 13 16 17 17 19 18 18 17 17 17 17 16 16 16 16 16 16 15 14 13 14 14 14 14 14 14 14 14 14 13 13 13 12
12 13 13 14 14 15 15 15 14 11 11 12 16 15 17 18 19 19 18 18 17 17 16 17 17 17 17 16 16 16 15 14 13 14 14 14 14 14 14 13 13 13 13 12
13 13 14 14 15 15 16 16 16 16 16 14 16 17 18 18 19 19 19 18 17 17 17 18 17 17 17 17 17 16 16 15 13 14 15 15 14 14 14 13 13 12 13 12
14 14 15 15 15 15 15 16 16 15 13 13 15 17 18 19 19 19 18 18 18 18 18 18 18 17 18 18 17 16 16 16 15 14 15 15 15 14 14 13 13 13 12 13
14 14 14 15 15 15 16 16 16 17 16 14 11 16 18 18 19 19 19 19 19 18 18 17 17 18 18 17 18 17 16 16 16 15 15 15 15 14 14 14 13 13 13 13
12 14 14 15 15 15 16 16 16 16 16 17 16 16 17 18 18 19 19 20 20 18 18 18 17 18 18 17 17 17 16 16 16 16 15 16 15 15 14 14 14 13 13 13
10 12 13 13 14 15 14 15 17 17 17 16 15 16 17 18 18 19 19 19 19 18 18 18 18 18 18 18 17 18 18 17 16 16 16 16 15 15 14 14 14 14 13 13
8 9 12 13 14 15 15 15 15 16 16 16 17 16 17 18 18 18 19 19 19 18 18 18 17 18 18 18 18 18 18 17 17 16 16 16 16 15 15 15 14 14 14 14
6 8 10 11 13 16 16 16 16 16 16 17 17 17 17 18 18 18 18 19 19 19 18 18 18 18 18 18 18 18 18 17 17 17 17 16 16 15 15 15 15 15 14 14
6 6 8 10 13 14 15 16 16 17 17 17 17 17 17 18 18 18 18 18 19 19 19 18 18 18 19 18 18 18 18 18 17 16 17 17 16 15 16 15 15 15 15 14
2 3 5 8 13 14 14 16 16 17 16 17 17 17 18 17 18 18 18 18 19 19 19 18 18 19 19 19 18 18 18 18 18 17 17 16 16 16 16 16 15 15 15 14
2 3 2 5 10 11 15 16 16 16 17 16 16 17 18 18 18 18 18 18 18 19 18 19 19 18 19 19 18 18 18 18 17 18 17 16 16 16 16 15 15 15 15 14
4 3 3 6 9 14 15 16 16 16 16 17 17 17 17 18 18 18 17 18 18 18 18 18 19 18 18 18 18 18 17 17 17 18 18 17 16 16 16 16 16 15 15 14
5 5 4 5 7 9 15 15 16 16 16 17 17 17 17 17 18 17 17 17 18 18 18 17 18 18 18 17 18 18 17 17 17 17 17 17 16 15 15 15 15 15 15 14
4 4 4 4 6 10 14 15 16 15 15 16 17 17 17 17 17 17 17 17 17 18 18 18 17 17 17 17 17 17 17 17 18 18 18 17 17 17 15 15 15 15 14 14
1 1 3 5 7 10 11 14 15 16 15 15 15 16 16 17 17 17 17 16 16 17 17 17 17 17 17 17 17 17 17 17 17 17 17 17 17 17 17 15 14 14 13 12
0 1 3 5 6 6 6 12 14 15 15 15 15 15 15 16 16 16 16 16 16 16 16 16 16 16 17 17 17 17 17 17 17 17 17 17 17 17 17 16 15 14 12 12
1 2 4 5 5 5 7 10 10 12 13 14 14 14 14 14 15 15 15 15 15 16 16 16 16 16 16 16 16 16 17 17 17 17 17 16 16 16 17 16 15 12 11 11
1 3 3 3 4 4 8 8 9 10 11 12 13 13 13 13 14 14 14 14 14 15 14 14 15 14 14 15 15 16 16 16 16 16 17 16 15 15 15 15 15 12 11 10
1 2 2 3 2 4 6 8 8 9 9 10 10 12 12 12 13 13 13 13 13 14 14 14 14 13 13 13 13 14 15 16 15 15 14 14 14 14 12 13 11 10 10 7

GFSCGP_700_temp_033.txt.gz
Temp
12 11 12 13 12 13 14 14 15 16 15 16 16 16 16 16 14 15 15 14 14 14 14 14 14 13 13 12 11 12 12 12 12 13 12 12 12 11 11 11 10 10 10 10
11 11 13 13 12 12 13 14 15 16 16 16 16 15 15 16 17 18 16 15 14 14 14 14 14 14 14 13 13 13 13 12 12 13 12 12 11 11 11 10 11 10 10 10
11 12 12 12 12 12 13 13 16 16 15 15 16 15 15 16 15 15 15 15 15 15 15 15 14 15 14 14 14 14 14 13 13 12 12 12 12 12 12 12 11 10 10 11
11 12 12 12 12 12 13 14 14 15 14 15 16 13 13 15 15 15 15 15 15 14 14 14 14 15 15 15 14 14 14 13 13 13 13 13 12 12 11 11 10 10 11 11
12 13 12 11 13 13 13 14 14 14 14 14 15 15 15 15 14 16 17 16 16 16 15 15 15 15 15 15 14 14 14 13 13 13 13 13 13 12 11 11 12 12 12 12
13 13 13 13 13 13 13 13 14 14 14 13 15 14 16 14 16 17 17 17 16 16 16 16 15 15 15 14 14 14 14 13 13 13 13 13 13 12 12 13 13 13 12 12
12 12 13 13 12 12 12 13 12 11 11 11 15 15 15 16 16 16 17 18 18 17 17 16 16 16 16 15 15 14 14 13 13 13 13 13 13 13 13 13 13 13 12 13
11 11 12 13 12 13 12 13 12 9 9 12 15 15 16 17 17 18 17 18 18 18 17 17 16 16 17 16 16 15 14 14 13 12 14 13 13 13 13 13 13 13 13 12
12 12 13 13 13 13 13 13 13 14 12 12 15 16 17 17 18 18 18 18 18 18 18 18 17 16 17 17 16 16 15 14 14 13 12 14 14 14 14 13 13 13 13 12
12 12 13 14 13 13 13 14 13 13 10 10 13 15 17 18 18 18 18 18 18 18 18 18 18 17 17 17 17 16 16 15 14 13 12 13 14 14 14 14 13 13 13 13
11 12 13 14 13 14 13 13 14 14 14 11 9 14 16 17 18 18 19 19 19 19 19 18 17 18 17 17 17 17 16 16 15 14 13 13 14 14 14 14 13 13 13 13
9 10 11 12 14 14 14 14 14 14 14 15 15 15 17 18 18 18 19 19 18 19 18 18 18 18 18 18 17 17 17 16 16 15 14 13 14 14 14 14 14 13 13 13
7 7 9 11 12 13 14 14 14 14 14 15 14 14 16 16 17 18 18 18 19 19 19 18 17 18 18 18 17 17 17 17 16 15 15 14 14 15 15 14 14 13 13 13
4 4 6 8 11 13 12 14 15 14 14 14 15 15 16 17 17 18 18 19 19 19 19 19 18 18 18 18 18 18 18 17 17 16 15 15 14 15 15 14 14 14 14 13
3 3 5 6 7 9 10 12 14 14 14 15 15 15 16 17 17 17 18 18 19 19 19 19 18 18 18 18 18 18 18 18 17 16 16 16 15 15 15 15 14 14 14 14
2 2 3 4 7 9 10 11 13 15 15 15 15 15 16 17 17 17 17 18 18 19 19 18 18 18 18 19 18 18 18 18 17 17 16 16 16 16 16 15 15 15 14 14
2 2 3 3 6 9 10 12 13 13 15 15 15 16 16 17 17 17 17 18 18 18 18 18 18 18 18 18 18 19 18 18 17 17 16 16 16 16 16 15 15 15 15 15
1 2 2 1 6 6 11 12 13 13 14 15 16 16 17 17 17 18 17 18 18 18 18 19 18 18 18 18 18 18 19 18 18 17 17 17 17 16 16 15 15 15 15 15
2 2 2 3 5 8 11 13 13 14 14 15 16 16 17 17 17 17 18 17 18 18 18 18 18 18 18 18 18 19 19 18 18 17 17 17 17 16 16 16 15 15 15 15
2 3 2 3 4 5 10 12 14 14 15 15 15 16 16 16 17 17 18 17 17 17 18 18 17 18 18 18 18 19 18 18 18 17 17 17 17 17 16 16 16 15 15 15
-1 -3 -2 0 3 5 8 11 12 11 14 16 16 16 17 16 17 17 17 17 17 17 18 18 17 17 18 18 18 18 18 18 18 17 17 17 17 17 16 16 15 15 15 15
0 0 -1 -0 2 4 8 10 10 11 15 15 16 16 17 17 17 17 17 17 17 17 17 17 17 18 17 17 18 17 18 17 17 18 17 17 17 17 17 16 16 15 14 14
-1 1 0 2 3 9 8 7 10 13 14 15 16 16 16 17 17 17 17 17 17 17 17 17 17 17 17 17 17 17 17 17 17 17 17 17 17 17 17 17 17 16 16 15
-0 1 2 3 4 7 8 6 9 11 12 14 15 15 15 16 16 16 16 16 16 16 16 16 16 16 17 17 17 17 17 16 16 17 17 17 17 17 17 17 17 15 15 14
-2 -0 2 3 5 6 8 8 9 10 11 13 14 15 14 14 15 15 15 15 15 15 15 15 16 16 16 16 16 16 16 16 16 16 16 16 16 16 16 16 16 16 16 14
-2 -0 1 3 4 6 8 6 6 8 10 12 12 13 13 13 14 14 14 14 14 14 14 14 15 15 15 15 16 16 16 16 16 16 16 16 16 15 16 16 15 13 13 12